[[{"header":{"parameterUnit":"m.s-1","parameterCategory":1,"la1":30.2991,"la2":30.254,"lo1":-89.0895,"lo2":-89.0444,"dy":0.0017,"dx":0.0017,"nx":28,"ny":28,"refTime":"2025-05-20T03:00:00:Z","depth":0,"parameterNumber":2,"parameterNumberName":"U-component_of_WINDS"},"data":[0,0,0,0,0,0,0,0,0,0,0,0,0,0,0,0,0,0,0,0,0,0,0,0,0,0,0,0,0,0,0,0,0,0,0,0,0,0,0,0,0,0,0,0,0,0,0,0,0,0,0,0,0,0,0,0,0,0,-0.3426,-0.3422,0,-0.3056,-0.3052,-0.3048,-0.2898,-0.2899,-0.2899,-0.29,-0.2511,-0.25,-0.2489,0,0,0,0,0,0,0,0,0,0,0,0,0,-0.3992,-0.3982,-0.3427,-0.3422,-0.3417,-0.3057,-0.3052,-0.3047,-0.2897,-0.2899,-0.29,-0.2901,-0.2515,-0.2502,-0.2488,0,0,0,0,0,0,0,0,0,0,0,0,0,-0.3696,-0.3979,-0.3427,-0.33,-0.3285,-0.3058,-0.3051,-0.3045,-0.2897,-0.2899,-0.29,-0.2901,-0.2519,-0.2503,-0.2487,-0.2356,0,0,-0.2435,-0.2428,0,0,0,0,0,0,0,0,-0.3713,-0.3676,-0.3323,-0.3308,-0.3291,-0.3025,-0.3108,-0.2814,-0.2897,-0.3044,-0.29,-0.2902,-0.268,-0.265,-0.2578,-0.2338,-0.2321,-0.2434,-0.2424,-0.2416,-0.2412,0,0,0,0,0,0,0,-0.3734,-0.3691,-0.3279,-0.3318,-0.3298,-0.3257,-0.3216,-0.3052,-0.2859,-0.3031,-0.302,-0.2978,-0.2672,-0.2594,-0.2568,-0.2316,-0.2434,-0.2419,-0.2409,-0.2402,-0.1944,-0.1942,0,0,0,0,0,0,-0.3777,-0.3709,-0.3291,-0.3268,-0.351,-0.3246,-0.32,-0.3108,-0.286,-0.2824,-0.2978,-0.2973,-0.2622,-0.2587,-0.2553,-0.238,-0.2417,-0.2401,-0.2391,-0.1946,-0.1943,-0.1941,0,0,0,0,0,0,-0.379,-0.3741,-0.3306,-0.3485,-0.3427,-0.3234,-0.3133,-0.31,-0.3023,-0.282,-0.2784,-0.2935,-0.2622,-0.2577,-0.2406,-0.2365,-0.2393,-0.2378,-0.1948,-0.1945,-0.1942,-0.2037,0,0,0,0,0,0,-0.3807,-0.3747,-0.3699,-0.3485,-0.3418,-0.3169,-0.313,-0.3092,-0.2996,-0.2986,-0.277,-0.2735,-0.262,-0.2432,-0.2389,-0.2342,-0.2365,-0.1951,-0.1947,-0.1943,-0.2037,-0.2038,-0.2039,0,0,0,0,0,-0.3827,-0.3739,-0.3697,-0.3648,-0.3354,-0.3167,-0.3128,-0.3,-0.2993,-0.2941,-0.2809,-0.2742,-0.2377,-0.2415,-0.2366,-0.2314,-0.1953,-0.1948,-0.1943,-0.2036,-0.2038,-0.2038,0,0,0,0,0,0,-0.3951,-0.3709,-0.366,-0.3501,-0.3356,-0.3143,-0.3073,-0.3006,-0.2857,-0.2854,-0.2697,-0.2649,-0.249,-0.2384,-0.2432,-0.2172,-0.2159,-0.2145,-0.2247,-0.2246,-0.2247,-0.2275,-0.2351,0,0,0,0,0,-0.396,-0.3832,-0.3626,-0.3506,-0.3436,-0.3267,-0.3181,-0.3094,-0.2936,-0.2874,-0.273,-0.2576,-0.2425,-0.233,-0.2181,-0.2021,-0.1969,-0.196,-0.1961,-0.1963,-0.1951,-0.1853,-0.1845,-0.1925,-0.1925,-0.1925,0,0,-0.3977,-0.3829,-0.3757,-0.3527,-0.3404,-0.3271,-0.3217,-0.3079,-0.2976,-0.2851,-0.2681,-0.257,-0.2387,-0.222,-0.2139,-0.2127,-0.1917,-0.1957,-0.196,-0.1946,-0.1847,-0.184,-0.1833,-0.1922,-0.1923,-0.1923,0,0,-0.3939,-0.3816,-0.37,-0.3578,-0.3394,-0.3282,-0.3254,-0.3049,-0.2971,-0.2799,-0.27,-0.2574,-0.2321,-0.2193,-0.2096,-0.2005,-0.1936,-0.196,-0.1964,-0.187,-0.1864,-0.1857,-0.1821,-0.181,-0.195,-0.195,-0.195,0,-0.3982,-0.3781,-0.3648,-0.3514,-0.3414,-0.3296,-0.3174,-0.3061,-0.2837,-0.2768,-0.2759,-0.2434,-0.2304,-0.2103,-0.208,-0.2006,-0.1965,-0.1984,-0.1876,-0.1868,-0.186,-0.1823,-0.1811,-0.1954,-0.1953,-0.1953,-0.1953,0,-0.3841,-0.3702,-0.363,-0.3418,-0.3309,-0.3182,-0.3026,-0.293,-0.2852,-0.2739,-0.2561,-0.24,-0.2214,-0.216,-0.2082,-0.1946,-0.1943,-0.1908,-0.1891,-0.1859,-0.1822,-0.1807,-0.196,-0.1958,-0.1957,-0.1956,0,0,-0.3872,-0.3586,-0.3562,-0.3462,-0.3248,-0.3136,-0.3002,-0.2822,-0.2741,-0.2589,-0.2469,-0.2255,-0.2219,-0.2108,-0.2013,-0.1932,-0.1864,-0.1904,-0.1897,-0.1899,-0.1699,-0.1726,-0.1713,-0.1818,-0.1815,-0.1812,-0.1713,0,-0.3803,-0.3561,-0.3435,-0.3245,-0.3112,-0.2996,-0.2877,-0.2731,-0.2621,-0.2489,-0.2365,-0.2215,-0.2181,-0.2112,-0.2026,-0.1892,-0.1822,-0.1897,-0.1699,-0.1694,-0.1748,-0.1694,-0.1723,-0.1637,-0.1698,-0.1695,-0.1694,0,-0.3691,-0.3542,-0.3339,-0.3137,-0.3076,-0.2973,-0.2795,-0.2672,-0.2501,-0.2426,-0.2301,-0.2208,-0.2055,-0.2052,-0.1837,-0.1891,-0.1802,-0.1723,-0.1716,-0.1691,-0.1691,-0.1664,-0.1607,-0.1594,-0.167,-0.1672,-0.1674,0,-0.373,-0.3478,-0.3323,-0.3241,-0.3002,-0.2931,-0.2828,-0.2658,-0.2557,-0.24,-0.2332,-0.216,-0.2064,-0.193,-0.179,-0.1802,-0.1587,-0.1573,-0.1517,-0.152,-0.1476,-0.148,-0.1401,-0.1424,-0.1424,-0.1424,-0.1424,0,-0.3665,-0.3545,-0.3337,-0.3241,-0.31,-0.2955,-0.2818,-0.2705,-0.2554,-0.2431,-0.2319,-0.2204,-0.2028,-0.189,-0.1779,-0.1615,-0.1574,-0.1505,-0.1477,-0.1514,-0.1522,-0.1452,-0.1454,-0.142,-0.1421,-0.1422,-0.1423,0,-0.3686,-0.3542,-0.3364,-0.3152,-0.3095,-0.3001,-0.2816,-0.2716,-0.26,-0.2444,-0.2399,-0.2215,-0.2046,-0.1894,-0.1669,-0.1594,-0.1426,-0.1392,-0.1485,-0.1469,-0.142,-0.1426,-0.1292,-0.1264,-0.1309,-0.1309,-0.1309,0,-0.3653,-0.3558,-0.3335,-0.3245,-0.3144,-0.3002,-0.2897,-0.2748,-0.2644,-0.2439,-0.2362,-0.2186,-0.2037,-0.1771,-0.1614,-0.144,-0.1399,-0.1364,-0.1372,-0.1411,-0.1394,-0.14,-0.1388,-0.1365,-0.1365,-0.1365,-0.1365,0,-0.3609,-0.3542,-0.3398,-0.3228,-0.3107,-0.2965,-0.2819,-0.2751,-0.2573,-0.246,-0.2288,-0.2172,-0.1942,-0.1766,-0.1574,-0.1462,-0.1381,-0.1364,-0.1341,-0.1377,-0.1434,-0.1398,-0.1486,-0.1368,-0.1367,-0.1367,-0.1367,-0.1367,-0.3599,-0.3507,-0.3335,-0.3177,-0.3052,-0.2917,-0.2812,-0.2682,-0.2536,-0.234,-0.2259,-0.2082,-0.1907,-0.1641,-0.1529,-0.1384,-0.1369,-0.1337,-0.1328,-0.1322,-0.1327,-0.1459,-0.1349,-0.1349,-0.1348,-0.1348,-0.1348,0,-0.3547,-0.343,-0.3286,-0.3086,-0.296,-0.2899,-0.2733,-0.263,-0.2477,-0.2322,-0.2178,-0.1976,-0.1803,-0.1632,-0.145,-0.1366,-0.1325,-0.1323,-0.1326,-0.1301,-0.1353,-0.139,-0.136,-0.136,-0.136,-0.136,-0.136,-0.136,-0.3505,-0.3345,-0.3257,-0.3031,-0.2913,-0.2741,-0.2651,-0.2524,-0.2399,-0.218,-0.2037,-0.1928,-0.1764,-0.1568,-0.1405,-0.1358,-0.1294,-0.1302,-0.1245,-0.1297,-0.1298,-0.1298,-0.1332,-0.129,-0.129,-0.1204,-0.1203,-0.1203]},{"header":{"parameterUnit":"m.s-1","parameterCategory":1,"la1":30.2991,"la2":30.254,"lo1":-89.0895,"lo2":-89.0444,"dy":0.0017,"dx":0.0017,"nx":28,"ny":28,"refTime":"2025-05-20T03:00:00:Z","depth":0,"parameterNumber":3,"parameterNumberName":"V-component_of_WINDS"},"data":[0,0,0,0,0,0,0,0,0,0,0,0,0,0,0,0,0,0,0,0,0,0,0,0,0,0,0,0,0,0,0,0,0,0,0,0,0,0,0,0,0,0,0,0,0,0,0,0,0,0,0,0,0,0,0,0,0,0,2.4463,2.4463,0,2.4467,2.4467,2.4467,2.4409,2.4407,2.4406,2.4404,2.4414,2.4415,2.4417,0,0,0,0,0,0,0,0,0,0,0,0,0,2.4413,2.4415,2.4463,2.4463,2.4463,2.4467,2.4467,2.4467,2.4409,2.4407,2.4405,2.4404,2.4413,2.4415,2.4417,0,0,0,0,0,0,0,0,0,0,0,0,0,2.4428,2.4415,2.4463,2.4435,2.4432,2.4467,2.4467,2.4467,2.441,2.4407,2.4405,2.4403,2.4412,2.4415,2.4417,2.4481,0,0,2.4425,2.4427,0,0,0,0,0,0,0,0,2.4427,2.443,2.4439,2.4437,2.4434,2.4435,2.4453,2.4472,2.441,2.4418,2.4404,2.4401,2.4423,2.4425,2.4431,2.4481,2.4482,2.4426,2.4427,2.4428,2.4429,0,0,0,0,0,0,0,2.4426,2.4429,2.4465,2.4439,2.4436,2.4424,2.4424,2.4456,2.4434,2.4417,2.4413,2.4414,2.4421,2.4428,2.443,2.4482,2.4426,2.4428,2.4429,2.443,2.4591,2.4593,0,0,0,0,0,0,2.4428,2.4429,2.4465,2.4465,2.4425,2.4427,2.4426,2.4437,2.4434,2.4431,2.4416,2.4411,2.4425,2.4427,2.4431,2.4509,2.4428,2.4431,2.4432,2.4588,2.4591,2.4594,0,0,0,0,0,0,2.4427,2.4432,2.4464,2.4446,2.4449,2.443,2.4443,2.4438,2.4445,2.4433,2.4429,2.4427,2.4423,2.4427,2.447,2.4508,2.4432,2.4434,2.4585,2.4589,2.4593,2.4663,0,0,0,0,0,0,2.4426,2.4432,2.4454,2.4447,2.445,2.4502,2.4445,2.444,2.4449,2.4443,2.4442,2.4439,2.4422,2.4466,2.4472,2.451,2.4436,2.4581,2.4587,2.4591,2.4657,2.4669,2.4679,0,0,0,0,0,2.4425,2.4474,2.4456,2.446,2.4477,2.4504,2.4506,2.4483,2.4452,2.4476,2.4469,2.4439,2.4502,2.4471,2.4477,2.4517,2.4579,2.4585,2.4591,2.4652,2.4667,2.4679,0,0,0,0,0,0,2.4488,2.4473,2.4452,2.45,2.4503,2.4494,2.4523,2.4498,2.4512,2.4506,2.4478,2.4479,2.4527,2.4525,2.4491,2.4581,2.4536,2.4543,2.458,2.4593,2.4604,2.4605,2.4438,0,0,0,0,0,2.4507,2.4528,2.4514,2.4558,2.4561,2.4542,2.4552,2.4534,2.4538,2.4539,2.4535,2.4541,2.4563,2.4577,2.4596,2.4656,2.4657,2.4686,2.4697,2.4706,2.4714,2.4751,2.4765,2.4614,2.4614,2.4614,0,0,2.4548,2.4542,2.4557,2.4571,2.4571,2.4597,2.4543,2.4571,2.4591,2.4544,2.4585,2.4582,2.4587,2.464,2.4663,2.4641,2.4756,2.4714,2.4721,2.4724,2.4759,2.4773,2.4786,2.4618,2.4617,2.4617,0,0,2.4636,2.4632,2.467,2.4671,2.4673,2.466,2.4669,2.4664,2.466,2.4699,2.4667,2.469,2.4726,2.4733,2.4741,2.4834,2.481,2.4841,2.4899,2.4935,2.4947,2.4957,2.4995,2.5008,2.4848,2.4848,2.4848,0,2.4687,2.4722,2.4693,2.4724,2.4733,2.469,2.4731,2.4734,2.4742,2.4751,2.4724,2.4772,2.4772,2.4828,2.4851,2.4857,2.4871,2.4842,2.4947,2.4957,2.4967,2.5002,2.5016,2.4852,2.4852,2.4851,2.4851,0,2.4787,2.4811,2.4842,2.485,2.4862,2.4898,2.4877,2.4893,2.4874,2.4866,2.4909,2.4908,2.4928,2.4939,2.4921,2.4994,2.4981,2.4951,2.4906,2.4986,2.5019,2.5032,2.4858,2.4857,2.4856,2.4855,0,0,2.4916,2.4908,2.4921,2.4926,2.4924,2.4944,2.4979,2.4997,2.5013,2.5021,2.5053,2.5085,2.5058,2.5068,2.505,2.5081,2.5161,2.5048,2.5048,2.5073,2.5247,2.5273,2.5289,2.5143,2.5146,2.5148,2.5248,0,2.5005,2.5063,2.5039,2.51,2.5125,2.5086,2.5117,2.5122,2.5114,2.5137,2.5129,2.5155,2.5115,2.5121,2.515,2.5145,2.5196,2.5137,2.5177,2.5179,2.5181,2.5305,2.5332,2.5427,2.5261,2.5263,2.5264,0,2.5117,2.5128,2.5192,2.5189,2.5199,2.5227,2.5243,2.5263,2.5269,2.5262,2.5274,2.525,2.5289,2.5241,2.5296,2.5257,2.5272,2.5272,2.5275,2.5282,2.5229,2.532,2.5456,2.5472,2.5284,2.5282,2.5281,0,2.5211,2.5242,2.5285,2.5289,2.5286,2.5308,2.5308,2.5311,2.5324,2.5339,2.5348,2.5368,2.538,2.5397,2.5382,2.5348,2.5441,2.5391,2.5441,2.5442,2.5465,2.5465,2.5611,2.5468,2.5467,2.5467,2.5467,0,2.5315,2.5357,2.5327,2.5355,2.5401,2.5374,2.5422,2.5418,2.5422,2.545,2.5416,2.5444,2.5419,2.5446,2.5434,2.5485,2.5489,2.5488,2.5485,2.5494,2.5495,2.5506,2.5501,2.5471,2.547,2.5469,2.5469,0,2.543,2.5411,2.5456,2.5449,2.5448,2.5484,2.5479,2.5506,2.5496,2.5533,2.554,2.5526,2.5556,2.5541,2.5573,2.5565,2.5632,2.5617,2.5629,2.5627,2.568,2.5677,2.5842,2.5864,2.5703,2.5704,2.5705,0,2.55,2.5531,2.5527,2.5543,2.5545,2.557,2.5583,2.5558,2.5574,2.5584,2.5611,2.5638,2.5658,2.5709,2.5704,2.573,2.5719,2.5775,2.5723,2.5732,2.5726,2.5726,2.5732,2.5787,2.5789,2.579,2.5792,0,2.5628,2.5617,2.5636,2.5654,2.567,2.5683,2.5693,2.5708,2.5684,2.5704,2.5733,2.5749,2.5781,2.5811,2.5833,2.5837,2.5813,2.5807,2.5821,2.5832,2.584,2.5842,2.5663,2.5805,2.5803,2.5802,2.5802,2.5801,2.5725,2.5753,2.5755,2.5779,2.5783,2.5794,2.582,2.5813,2.5836,2.5859,2.5843,2.588,2.5888,2.5916,2.5923,2.5954,2.5932,2.5951,2.5956,2.5963,2.5972,2.5831,2.5957,2.5957,2.5956,2.5956,2.5956,0,2.5856,2.5855,2.5877,2.5892,2.5912,2.5883,2.5893,2.5913,2.5944,2.5953,2.5973,2.601,2.6038,2.6036,2.6063,2.6088,2.6079,2.6097,2.6097,2.61,2.5987,2.5975,2.6105,2.6105,2.6105,2.6105,2.6105,2.6105,2.5927,2.5973,2.5963,2.6012,2.6012,2.6045,2.6054,2.6066,2.6073,2.6114,2.6137,2.6133,2.6139,2.6167,2.6194,2.6192,2.6206,2.623,2.6226,2.6122,2.6107,2.6093,2.6082,2.6232,2.6232,2.6337,2.6338,2.6338]}]]